GW0416 Weather Reports


time (UTC)temp
C
wind
direction
speed
KPH
gust
KPH
rain 1hr
cm
rain 24hr
cm
rain mn
cm
humidity
%
barometer
mb
20260904211534 22 290 24.1 33.8 0.00 0.00 0.00 37 1011.7
20260904210037 22 292 27.4 46.7 0.00 0.00 0.00 36 1011.6
20260904204537 22 306 27.4 38.6 0.00 0.00 0.00 35 1011.4
20260904203049 22 293 22.5 30.6 0.00 0.00 0.00 35 1011.4
20260904201535 21 281 24.1 37.0 0.00 0.00 0.00 36 1011.0
20260904200056 22 306 14.5 29.0 0.00 0.00 0.00 37 1011.0
20260904194534 21 271 16.1 24.1 0.00 0.00 0.00 39 1010.9
20260904193037 20 277 16.1 27.4 0.00 0.00 0.00 41 1010.6
20260904191537 20 284 14.5 24.1 0.00 0.00 0.00 42 1010.3
20260904190038 19 262 11.3 20.9 0.00 0.00 0.00 43 1010.3
20260904184537 19 274 16.1 27.4 0.00 0.00 0.00 43 1010.2
20260904183041 18 277 14.5 22.5 0.00 0.00 0.00 44 1010.1
20260904181540 18 234 14.5 27.4 0.00 0.00 0.00 44 1009.9
20260904180042 18 246 14.5 25.7 0.00 0.00 0.00 43 1010.0
20260904174536 18 228 14.5 19.3 0.00 0.00 0.00 44 1010.0
20260904173053 18 254 6.4 12.9 0.00 0.00 0.00 45 1009.6
20260904171538 17 224 11.3 17.7 0.00 0.00 0.00 45 1009.7
20260904170038 17 244 12.9 22.5 0.00 0.00 0.00 47 1009.6
20260904164534 16 250 14.5 25.7 0.00 0.00 0.00 47 1009.6
20260904163035 17 227 17.7 25.7 0.00 0.00 0.00 46 1009.4
20260904161535 17 302 8.0 16.1 0.00 0.00 0.00 53 1009.1
20260904160045 16 289 6.4 11.3 0.00 0.00 0.00 52 1009.0
20260904154535 16 36 6.4 9.7 0.00 0.00 0.00 51 1008.4
20260904153034 16 40 8.0 11.3 0.00 0.00 0.00 51 1008.1
20260904151538 16 53 11.3 16.1 0.00 0.00 0.00 50 1007.9
20260904150034 16 54 9.7 14.5 0.00 0.00 0.00 53 1007.8
20260904144538 15 67 9.7 16.1 0.00 0.00 0.00 53 1007.8
20260904143037 15 53 4.8 11.3 0.00 0.00 0.00 56 1007.6
20260904141539 13 26 8.0 19.3 0.00 0.00 0.00 59 1007.9
20260904140037 13 65 14.5 17.7 0.00 0.00 0.00 59 1007.8
20260904134559 12 68 4.8 14.5 0.00 0.00 0.00 66 1008.0
20260904133036 11 34 8.0 14.5 0.00 0.00 0.00 66 1008.2
20260904131537 11 28 11.3 16.1 0.00 0.00 0.00 66 1008.0
20260904130041 10 34 11.3 14.5 0.00 0.00 0.00 68 1007.7
20260904124537 10 34 14.5 19.3 0.00 0.00 0.00 68 1007.5
20260904123036 11 31 14.5 17.7 0.00 0.00 0.00 67 1007.5
20260904121542 11 33 14.5 17.7 0.00 0.00 0.00 67 1007.6
20260904120037 11 28 12.9 16.1 0.00 0.00 0.00 66 1007.6
20260904114537 11 33 9.7 16.1 0.00 0.00 0.00 63 1007.6
20260904113034 12 41 9.7 22.5 0.00 0.00 0.00 59 1007.6
20260904111538 12 55 17.7 24.1 0.00 0.00 0.00 59 1007.6
20260904110033 12 37 14.5 20.9 0.00 0.00 0.00 61 1007.8
20260904104534 12 15 14.5 20.9 0.00 0.00 0.00 61 1008.2
20260904103034 12 22 12.9 17.7 0.00 0.00 0.00 62 1008.2
20260904101536 11 26 12.9 20.9 0.00 0.00 0.00 63 1008.3
20260904100036 11 29 17.7 22.5 0.00 0.00 0.00 63 1008.2
20260904094549 12 25 9.7 17.7 0.00 0.00 0.00 61 1008.5
20260904093035 12 52 14.5 19.3 0.00 0.00 0.00 62 1008.4
20260904091538 12 38 14.5 20.9 0.00 0.00 0.00 61 1008.6
20260904090045 12 40 17.7 22.5 0.00 0.00 0.00 60 1008.8
20260904084534 12 44 14.5 22.5 0.00 0.00 0.00 61 1009.1
20260904083105 12 45 17.7 22.5 0.00 0.00 0.00 61 1009.1
20260904081536 12 59 12.9 19.3 0.00 0.00 0.00 61 1009.4
20260904080037 13 48 12.9 17.7 0.00 0.00 0.00 60 1009.4
20260904074533 13 51 14.5 19.3 0.00 0.00 0.00 58 1009.7
20260904073036 13 28 6.4 12.9 0.00 0.00 0.00 59 1009.8
20260904071547 14 5 12.9 20.9 0.00 0.00 0.00 58 1009.9
20260904070105 13 14 8.0 12.9 0.00 0.00 0.00 61 1009.9
20260904064538 14 15 11.3 14.5 0.00 0.00 0.00 56 1009.9
20260904063036 13 35 8.0 14.5 0.00 0.00 0.00 59 1009.9
20260904061536 13 31 8.0 14.5 0.00 0.00 0.00 59 1010.0
20260904060036 14 28 8.0 14.5 0.00 0.00 0.00 58 1009.9
20260904054544 14 9 11.3 16.1 0.00 0.00 0.00 56 1010.0
20260904053048 13 337 9.7 16.1 0.00 0.00 0.00 59 1010.1
20260904051540 13 330 8.0 12.9 0.00 0.00 0.00 60 1010.4
20260904050038 13 338 6.4 9.7 0.00 0.00 0.00 59 1010.4
20260904044538 14 333 3.2 14.5 0.00 0.00 0.00 59 1010.6
20260904043038 13 13 11.3 14.5 0.00 0.00 0.00 57 1010.5
20260904041534 13 27 9.7 14.5 0.00 0.00 0.00 56 1010.5
20260904040043 13 19 8.0 11.3 0.00 0.00 0.00 57 1010.6
20260904034536 12 360 4.8 9.7 0.00 0.00 0.00 61 1010.4
20260904033042 12 317 9.7 14.5 0.00 0.00 0.00 62 1010.5
20260904031547 15 317 8.0 17.7 0.00 0.00 0.00 52 1010.4
20260904030037 15 12 12.9 14.5 0.00 0.00 0.00 50 1010.4
20260904024539 15 19 12.9 16.1 0.00 0.00 0.00 52 1010.1
20260904023037 16 42 9.7 14.5 0.00 0.00 0.00 50 1010.1
20260904021535 17 355 12.9 19.3 0.00 0.00 0.00 46 1009.7
20260904020035 17 350 16.1 24.1 0.00 0.00 0.00 44 1009.6
20260904014539 18 317 16.1 22.5 0.00 0.00 0.00 43 1009.4
20260904013043 20 323 8.0 17.7 0.00 0.00 0.00 41 1009.6
20260904011543 20 317 11.3 22.5 0.00 0.00 0.00 39 1009.5
20260904010039 21 342 12.9 29.0 0.00 0.00 0.00 39 1009.6
20260904004537 21 346 17.7 29.0 0.00 0.03 0.00 38 1009.5
20260904003041 21 292 24.1 30.6 0.00 0.03 0.00 37 1009.3
20260904001535 22 279 17.7 27.4 0.00 0.03 0.00 36 1009.3
20260904000039 22 297 24.1 33.8 0.00 0.03 0.00 36 1009.0
20260903234536 22 292 17.7 25.7 0.00 0.10 0.00 36 1009.0
20260903233038 22 302 20.9 41.8 0.00 0.10 0.00 37 1008.7
20260903231540 22 279 22.5 30.6 0.00 0.10 0.00 38 1008.9
20260903230045 22 281 17.7 27.4 0.00 0.10 0.00 36 1008.8
20260903224535 22 305 17.7 25.7 0.00 0.18 0.00 35 1008.6
20260903223035 23 246 17.7 35.4 0.00 0.18 0.00 34 1008.3
20260903221535 22 250 17.7 37.0 0.00 0.18 0.00 34 1008.2
20260903220039 23 217 20.9 40.2 0.00 0.18 0.00 31 1008.1
20260903214544 23 219 30.6 38.6 0.00 0.18 0.00 31 1008.0
20260903213045 23 256 20.9 41.8 0.00 0.18 0.00 32 1008.0